DW7779 Weather Reports


time (UTC)temp
F
wind
direction
speed
knots
gust
knots
rain 1hr
in
rain 24hr
in
rain mn
in
humidity
%
barometer
mb
20260506164501 42 0.9 7.0 0.00 0.09 0.02 85 1018.2
20260506163107 42 0.9 4.3 0.00 0.09 0.02 86 1018.3
20260506161639 42 0.9 6.1 0.00 0.09 0.02 85 1018.3
20260506160108 42 1.7 6.1 0.00 0.09 0.02 85 1018.3
20260506154555 42 0.9 5.2 0.01 0.09 0.02 89 1018.2
20260506153058 41 0.9 1.7 0.01 0.09 0.02 90 1018.1
20260506151551 42 0.9 2.6 0.02 0.09 0.02 89 1018.2
20260506150048 43 1.7 3.5 0.02 0.09 0.02 88 1018.4
20260506144546 43 0.9 5.2 0.02 0.08 0.02 85 1017.9
20260506143045 43 4.3 8.7 0.02 0.08 0.02 85 1017.8
20260506141540 43 0.9 4.3 0.02 0.07 0.01 88 1018.1
20260506140038 43 1.7 4.3 0.01 0.06 0.00 87 1018.2
20260506134537 44 0.0 1.7 0.00 0.06 0.06 84 1017.9
20260506133035 43 0.9 2.6 0.00 0.06 0.06 83 1017.6
20260506131545 44 1.7 4.3 0.00 0.06 0.06 82 1017.2
20260506130040 44 1.7 5.2 0.00 0.06 0.06 82 1017.1
20260506124531 44 2.6 7.8 0.00 0.06 0.06 83 1017.0
20260506123029 45 1.7 8.7 0.00 0.06 0.06 84 1017.1
20260506121528 44 2.6 6.1 0.00 0.06 0.06 84 1017.2
20260506120028 45 0.9 4.3 0.00 0.06 0.06 82 1017.2
20260506114521 46 3.5 10.4 0.00 0.06 0.06 80 1017.3
20260506113018 48 1.7 7.0 0.00 0.06 0.06 84 1017.0
20260506111516 47 1.7 6.1 0.00 0.06 0.06 85 1016.7
20260506110020 48 1.7 7.8 0.01 0.06 0.06 86 1016.5
20260506104514 48 0.9 5.2 0.01 0.06 0.06 87 1016.4
20260506103012 48 0.9 4.3 0.01 0.06 0.06 89 1016.4
20260506101522 49 1.7 7.0 0.02 0.06 0.06 89 1016.5
20260506100011 49 2.6 7.0 0.01 0.05 0.05 88 1016.5
20260506094520 49 1.7 5.2 0.01 0.05 0.05 90 1016.2
20260506093014 50 3.5 8.7 0.00 0.04 0.04 89 1015.9
20260506091513 51 0.9 8.7 0.00 0.04 0.04 90 1015.5
20260506090009 52 1.7 7.0 0.00 0.04 0.04 88 1015.2
20260506084510 53 1.7 6.1 0.00 0.04 0.04 87 1015.2
20260506083007 53 4.3 11.3 0.00 0.04 0.04 87 1014.8
20260506081507 54 0.9 5.2 0.00 0.04 0.04 85 1014.4
20260506073009 57 3.5 11.3 0.00 0.04 0.04 86 1013.0
20260506071505 58 4.3 9.6 0.00 0.04 0.04 87 1012.9
20260506061502 58 4.3 9.6 0.04 0.04 0.04 87 1013.5
20260506050103 64 5.2 12.2 0.00 0.00 0.00 66 1013.4
20260506044657 65 7.8 14.8 0.00 0.00 0.00 64 1013.7
20260506043049 65 5.2 10.4 0.00 0.00 0.00 63 1013.9
20260506041558 65 3.5 7.8 0.00 0.00 0.00 63 1014.0
20260506040044 64 4.3 10.4 0.00 0.00 0.00 63 1014.4
20260506034618 65 5.2 8.7 0.00 0.00 0.00 62 1014.6
20260506033039 65 3.5 9.6 0.00 0.00 0.00 62 1014.8
20260506031540 65 4.3 10.4 0.00 0.00 0.00 62 1014.9
20260506030032 64 5.2 11.3 0.00 0.00 0.00 64 1015.5
20260506024530 64 3.5 8.7 0.00 0.00 0.00 63 1015.8
20260506023027 64 6.1 9.6 0.00 0.00 0.00 63 1016.0
20260506021524 64 2.6 10.4 0.00 0.00 0.00 64 1016.4
20260506020022 65 4.3 9.6 0.00 0.00 0.00 62 1016.8
20260506014526 64 5.2 9.6 0.00 0.00 0.00 63 1017.1
20260506013015 63 4.3 10.4 0.00 0.00 0.00 64 1017.3
20260506011516 63 2.6 7.0 0.00 0.00 0.00 65 1017.5
20260506010013 62 5.2 8.7 0.00 0.00 0.00 65 1017.7
20260506004515 62 3.5 8.7 0.00 0.00 0.00 67 1017.7
20260506003003 61 4.3 11.3 0.00 0.00 0.00 68 1018.0
20260506001501 60 4.3 12.2 0.00 0.00 0.00 69 1018.3
20260506000058 59 4.3 8.7 0.00 0.00 0.00 70 1018.5
20260505234622 59 4.3 8.7 0.00 0.00 0.00 70 1018.7
20260505233051 58 3.5 7.0 0.00 0.00 0.00 72 1018.9
20260505231547 58 1.7 6.1 0.00 0.00 0.00 74 1019.0
20260505230045 56 1.7 5.2 0.00 0.00 0.00 76 1019.2
20260505224541 55 0.0 1.7 0.00 0.00 0.00 80 1019.3
20260505223036 54 0.0 1.7 0.00 0.00 0.00 81 1019.3
20260505221534 53 0.0 1.7 0.00 0.00 0.00 81 1019.3
20260505220043 53 0.9 3.5 0.00 0.00 0.00 82 1019.3
20260505214536 52 0.0 2.6 0.00 0.00 0.00 83 1019.3
20260505213026 52 0.0 1.7 0.00 0.00 0.00 83 1019.3
20260505211525 52 0.0 0.9 0.00 0.00 0.00 83 1019.3
20260505210023 52 0.0 1.7 0.00 0.00 0.00 84 1019.4
20260505204523 51 0.0 1.7 0.00 0.00 0.00 84 1019.5
20260505203019 51 0.0 1.7 0.00 0.00 0.00 85 1019.6
20260505201522 51 0.0 2.6 0.00 0.00 0.00 85 1019.6
20260505200012 51 0.0 1.7 0.00 0.00 0.00 85 1019.6
20260505194524 51 0.0 0.9 0.00 0.00 0.00 86 1019.6
20260505193024 50 0.0 1.7 0.00 0.00 0.00 87 1019.4
20260505191506 50 0.0 0.9 0.00 0.00 0.00 88 1019.4
20260505190004 50 0.0 1.7 0.00 0.00 0.00 89 1019.5
20260505184506 50 0.0 0.0 0.00 0.00 0.00 90 1019.5
20260505183002 50 0.0 0.0 0.00 0.00 0.00 90 1019.5
20260505181502 50 0.0 0.0 0.00 0.00 0.00 89 1019.6
20260505180003 50 0.0 0.9 0.00 0.00 0.00 89 1019.6
20260505174613 50 0.0 2.6 0.00 0.00 0.00 90 1019.7
20260505173057 50 0.0 1.7 0.00 0.00 0.00 91 1019.8
20260505171556 49 0.9 2.6 0.00 0.00 0.00 91 1019.9
20260505170134 49 0.9 1.7 0.00 0.00 0.00 92 1020.0